contact:dominique.lefevre@mio.osupytheas.fr, maurice.libes@osupytheas.fr, didier.mallarino@osupytheas.fr
Project:EMSO http://www.emso-fr.org/EMSO-France
Depth: 2436.0 m
Title:EMSO Ligure Ouest : Data MII capteur AQUADOPP
Date,Latitude,Longitude,X_East,Y_North,Z_Up,Amplitude_X,Amplitude_Y,Amplitude_Z,Batterie,SoundSpeed,Heading,Pitch,Roll,Pressure,TIS,Speed,Direction
, degrees North, degrees East, m.s-1, m.s-1,m.s-1, 1, 1, 1, Volt, m.s-1, degree, degree, degree, dbar, degree_C, m.s-1, degree
2021-10-22T00:04:03,42.805,6.029,0.017,-0.016,-0.004,102.0,101.0,101.0,13.4,1505.2,329.8,-0.7,1.8,2470.669,13.28,0.023,133.3
2021-10-22T00:07:03,42.805,6.029,0.018,-0.029,-0.017,102.0,101.0,100.0,13.4,1505.2,327.1,-0.7,1.8,2470.576,13.28,0.034,148.2
2021-10-22T00:10:03,42.805,6.029,-0.017,-0.021,-0.031,102.0,102.0,101.0,13.4,1505.2,330.1,-0.7,1.8,2470.612,13.28,0.027,219.0
2021-10-22T00:13:03,42.805,6.029,-0.019,-0.009,-0.008,101.0,100.0,102.0,13.3,1505.2,327.8,-0.8,1.8,2470.598,13.28,0.021,244.7
2021-10-22T00:16:03,42.805,6.029,-0.002,-0.038,-0.05,101.0,103.0,100.0,13.4,1505.2,328.8,-0.8,1.8,2470.586,13.28,0.038,183.0
2021-10-22T00:19:03,42.805,6.029,-0.022,-0.013,-0.031,100.0,101.0,101.0,13.4,1505.2,330.1,-0.8,1.8,2470.544,13.28,0.025,239.4
2021-10-22T00:22:03,42.805,6.029,-0.013,-0.011,-0.014,102.0,102.0,101.0,13.4,1505.2,331.3,-0.8,1.8,2470.546,13.28,0.017,229.8
2021-10-22T00:25:03,42.805,6.029,0.002,-0.021,-0.037,102.0,102.0,100.0,13.4,1505.2,327.1,-0.8,1.8,2470.547,13.28,0.021,174.6
2021-10-22T00:28:03,42.805,6.029,-0.013,-0.011,-0.057,102.0,103.0,100.0,13.4,1505.2,327.4,-0.7,1.8,2470.569,13.28,0.017,229.8
2021-10-22T00:31:03,42.805,6.029,0.0,-0.018,-0.017,101.0,103.0,102.0,13.4,1505.2,325.6,-0.8,1.8,2470.525,13.28,0.018,180.0
2021-10-22T00:34:03,42.805,6.029,-0.02,-0.008,-0.022,102.0,103.0,100.0,13.4,1505.2,327.8,-0.7,1.8,2470.612,13.28,0.021,248.2
2021-10-22T00:37:03,42.805,6.029,-0.031,-0.002,-0.025,102.0,103.0,100.0,13.4,1505.2,325.7,-0.8,1.8,2470.582,13.28,0.031,266.3
2021-10-22T00:40:03,42.805,6.029,-0.021,-0.015,-0.008,103.0,101.0,101.0,13.4,1505.2,329.9,-0.7,1.8,2470.56,13.28,0.025,234.5
2021-10-22T00:43:03,42.805,6.029,-0.038,-0.022,-0.01,102.0,101.0,102.0,13.4,1505.2,329.1,-0.8,1.8,2470.573,13.28,0.043,239.9
2021-10-22T00:46:03,42.805,6.029,0.003,-0.026,-0.018,103.0,102.0,101.0,13.3,1505.2,325.7,-0.8,1.8,2470.559,13.28,0.026,173.4
2021-10-22T00:49:03,42.805,6.029,0.003,-0.02,-0.033,102.0,102.0,101.0,13.4,1505.2,328.8,-0.7,1.8,2470.521,13.28,0.02,171.5
2021-10-22T00:52:03,42.805,6.029,0.014,-0.01,0.008,101.0,102.0,101.0,13.4,1505.2,330.9,-0.8,1.8,2470.569,13.28,0.017,125.5
2021-10-22T00:55:03,42.805,6.029,-0.012,-0.016,-0.017,102.0,102.0,101.0,13.4,1505.2,325.5,-0.8,1.8,2470.545,13.28,0.02,216.9
2021-10-22T00:58:03,42.805,6.029,-0.017,0.001,-0.041,102.0,102.0,102.0,13.3,1505.2,329.7,-0.7,1.8,2470.571,13.29,0.017,273.4
2021-10-22T01:04:03,42.805,6.029,-0.018,-0.024,-0.044,104.0,104.0,106.0,13.4,1505.2,329.0,-0.8,1.8,2470.598,13.28,0.03,216.9
2021-10-22T01:07:03,42.805,6.029,-0.032,0.011,0.005,103.0,103.0,103.0,13.4,1505.2,326.9,-0.8,1.8,2470.577,13.28,0.033,289.0
2021-10-22T01:10:03,42.805,6.029,-0.002,0.0,-0.012,103.0,103.0,101.0,13.4,1505.2,327.0,-0.8,1.8,2470.588,13.28,0.002,270.0
2021-10-22T01:13:03,42.805,6.029,-0.025,-0.012,-0.035,102.0,100.0,102.0,13.3,1505.2,329.7,-0.8,1.8,2470.552,13.28,0.027,244.4
2021-10-22T01:16:03,42.805,6.029,-0.013,-0.009,0.004,102.0,102.0,100.0,13.4,1505.2,329.7,-0.7,1.8,2470.558,13.28,0.015,235.3
2021-10-22T01:19:03,42.805,6.029,-0.028,0.001,-0.008,103.0,101.0,102.0,13.3,1505.2,329.1,-0.8,1.8,2470.546,13.28,0.028,272.0
2021-10-22T01:22:03,42.805,6.029,-0.019,-0.007,-0.02,102.0,101.0,101.0,13.3,1505.2,330.1,-0.8,1.8,2470.529,13.28,0.02,249.8
2021-10-22T01:25:03,42.805,6.029,-0.028,0.027,0.011,102.0,102.0,101.0,13.3,1505.2,330.9,-0.8,1.8,2470.537,13.28,0.038,314.0
2021-10-22T01:28:03,42.805,6.029,0.007,0.009,-0.006,103.0,102.0,100.0,13.4,1505.2,331.2,-0.7,1.8,2470.536,13.28,0.011,37.9
2021-10-22T01:31:03,42.805,6.029,-0.014,0.011,-0.008,104.0,100.0,100.0,13.4,1505.2,327.4,-0.7,1.8,2470.515,13.28,0.017,308.2
2021-10-22T01:34:03,42.805,6.029,-0.006,0.012,-0.004,103.0,102.0,100.0,13.4,1505.2,330.0,-0.8,1.8,2470.537,13.29,0.013,333.4
2021-10-22T01:37:03,42.805,6.029,-0.02,0.001,0.016,102.0,102.0,101.0,13.4,1505.2,329.1,-0.8,1.8,2470.537,13.29,0.02,272.9
2021-10-22T01:40:03,42.805,6.029,-0.007,-0.007,-0.032,103.0,101.0,101.0,13.3,1505.2,330.1,-0.7,1.8,2470.528,13.29,0.009,225.0
2021-10-22T01:43:03,42.805,6.029,-0.041,0.008,-0.025,102.0,102.0,101.0,13.3,1505.2,326.0,-0.8,1.8,2470.504,13.29,0.041,281.0
2021-10-22T01:46:03,42.805,6.029,-0.025,-0.014,-0.031,103.0,102.0,100.0,13.4,1505.2,330.2,-0.7,1.8,2470.489,13.29,0.028,240.7
2021-10-22T01:49:03,42.805,6.029,-0.042,-0.003,-0.023,103.0,101.0,100.0,13.4,1505.2,331.6,-0.8,1.8,2470.555,13.29,0.042,265.9
2021-10-22T01:52:03,42.805,6.029,-0.004,-0.01,-0.014,101.0,101.0,101.0,13.4,1505.2,331.1,-0.8,1.8,2470.5,13.29,0.01,201.8
2021-10-22T01:55:03,42.805,6.029,0.009,-0.01,-0.043,102.0,101.0,102.0,13.4,1505.2,331.0,-0.7,1.8,2470.52,13.29,0.013,138.0
2021-10-22T01:58:03,42.805,6.029,-0.008,-0.012,-0.022,102.0,102.0,100.0,13.4,1505.2,328.9,-0.8,1.8,2470.532,13.29,0.014,213.7
2021-10-22T02:04:03,42.805,6.029,-0.031,0.009,-0.015,103.0,102.0,101.0,13.4,1505.2,330.3,-0.8,1.8,2470.572,13.28,0.032,286.2
2021-10-22T02:07:03,42.805,6.029,-0.004,0.007,-0.01,102.0,102.0,102.0,13.4,1505.2,326.4,-0.7,1.8,2470.547,13.28,0.008,330.3
2021-10-22T02:10:03,42.805,6.029,-0.02,0.005,-0.021,102.0,103.0,103.0,13.4,1505.2,326.4,-0.8,1.8,2470.541,13.28,0.02,284.0
2021-10-22T02:13:03,42.805,6.029,-0.022,0.01,-0.016,102.0,101.0,101.0,13.3,1505.2,330.1,-0.8,1.8,2470.535,13.29,0.024,294.4
2021-10-22T02:16:03,42.805,6.029,-0.011,0.011,0.001,101.0,101.0,102.0,13.3,1505.2,328.1,-0.7,1.8,2470.559,13.29,0.015,315.0
2021-10-22T02:19:03,42.805,6.029,-0.003,0.0,-0.011,103.0,103.0,100.0,13.3,1505.2,328.9,-0.7,1.8,2470.535,13.29,0.003,270.0
2021-10-22T02:22:03,42.805,6.029,-0.014,-0.005,-0.052,102.0,101.0,102.0,13.3,1505.2,330.8,-0.7,1.8,2470.501,13.29,0.014,250.4
2021-10-22T02:25:03,42.805,6.029,-0.012,0.01,-0.003,101.0,103.0,101.0,13.4,1505.2,329.8,-0.7,1.8,2470.521,13.29,0.015,309.8
2021-10-22T02:28:03,42.805,6.029,-0.006,-0.005,-0.042,102.0,100.0,103.0,13.4,1505.2,326.6,-0.8,1.8,2470.502,13.29,0.007,230.2
2021-10-22T02:31:03,42.805,6.029,-0.01,0.002,0.008,103.0,103.0,101.0,13.4,1505.2,327.8,-0.8,1.8,2470.499,13.29,0.01,281.3
2021-10-22T02:34:03,42.805,6.029,-0.027,0.009,0.004,103.0,102.0,101.0,13.3,1505.2,326.9,-0.7,1.8,2470.535,13.29,0.028,288.4
2021-10-22T02:37:03,42.805,6.029,-0.016,0.008,-0.036,102.0,102.0,100.0,13.3,1505.2,326.9,-0.7,1.9,2470.511,13.29,0.017,296.6
2021-10-22T02:40:03,42.805,6.029,-0.045,0.01,-0.024,102.0,103.0,99.0,13.4,1505.2,328.8,-0.7,1.8,2470.585,13.29,0.046,282.5
2021-10-22T02:43:03,42.805,6.029,-0.013,0.031,0.022,102.0,101.0,101.0,13.3,1505.2,330.0,-0.8,1.8,2470.515,13.29,0.033,337.3
2021-10-22T02:46:03,42.805,6.029,-0.028,-0.003,0.003,102.0,102.0,101.0,13.4,1505.2,327.3,-0.8,1.8,2470.539,13.29,0.028,263.9
2021-10-22T02:49:03,42.805,6.029,-0.014,0.004,-0.011,102.0,102.0,101.0,13.4,1505.2,329.5,-0.8,1.8,2470.515,13.29,0.014,285.9
2021-10-22T02:52:03,42.805,6.029,-0.001,-0.004,0.0,102.0,103.0,100.0,13.3,1505.2,330.9,-0.7,1.8,2470.498,13.29,0.004,194.0
2021-10-22T02:55:03,42.805,6.029,-0.03,0.012,-0.005,102.0,102.0,101.0,13.3,1505.2,328.6,-0.8,1.8,2470.504,13.29,0.032,291.8
2021-10-22T02:58:03,42.805,6.029,-0.017,0.02,0.007,103.0,101.0,101.0,13.4,1505.2,329.5,-0.7,1.8,2470.498,13.29,0.026,319.6
2021-10-22T03:04:03,42.805,6.029,-0.016,0.004,-0.005,102.0,101.0,100.0,13.4,1505.2,326.5,-0.7,1.8,2470.58,13.29,0.016,284.0
2021-10-22T03:07:03,42.805,6.029,0.005,-0.029,-0.027,102.0,101.0,101.0,13.4,1505.2,330.7,-0.8,1.8,2470.57,13.28,0.029,170.2
2021-10-22T03:10:03,42.805,6.029,-0.015,0.011,-0.006,101.0,102.0,102.0,13.4,1505.2,331.8,-0.7,1.8,2470.57,13.29,0.018,306.3
2021-10-22T03:13:03,42.805,6.029,-0.01,-0.014,-0.026,102.0,101.0,101.0,13.4,1505.2,330.8,-0.7,1.8,2470.549,13.29,0.017,215.5
2021-10-22T03:16:03,42.805,6.029,-0.009,0.008,-0.015,102.0,101.0,100.0,13.3,1505.2,329.7,-0.8,1.8,2470.552,13.29,0.012,311.6
2021-10-22T03:19:03,42.805,6.029,-0.018,-0.004,-0.011,101.0,103.0,100.0,13.3,1505.2,329.6,-0.7,1.8,2470.571,13.29,0.018,257.5
2021-10-22T03:22:03,42.805,6.029,-0.012,-0.03,-0.04,100.0,100.0,101.0,13.4,1505.2,325.4,-0.8,1.8,2470.582,13.29,0.032,201.8
2021-10-22T03:25:03,42.805,6.029,-0.013,-0.017,-0.01,100.0,100.0,101.0,13.4,1505.2,327.3,-0.8,1.9,2470.561,13.29,0.021,217.4
2021-10-22T03:28:03,42.805,6.029,-0.012,-0.011,-0.042,102.0,109.0,100.0,13.4,1505.2,325.5,-0.7,1.8,2470.542,13.29,0.016,227.5
2021-10-22T03:31:03,42.805,6.029,-0.006,-0.011,-0.03,101.0,102.0,100.0,13.4,1505.2,331.8,-0.7,1.8,2470.545,13.29,0.012,208.6
2021-10-22T03:34:03,42.805,6.029,-0.001,-0.006,-0.011,101.0,101.0,100.0,13.4,1505.2,329.8,-0.8,1.8,2470.583,13.29,0.006,189.5
2021-10-22T03:37:03,42.805,6.029,-0.002,0.006,-0.018,101.0,102.0,100.0,13.3,1505.2,330.8,-0.7,1.8,2470.553,13.29,0.006,341.6
2021-10-22T03:40:03,42.805,6.029,-0.032,0.014,-0.015,101.0,101.0,100.0,13.4,1505.2,328.4,-0.7,1.8,2470.532,13.29,0.034,293.6
2021-10-22T03:43:03,42.805,6.029,-0.011,-0.011,-0.018,102.0,102.0,100.0,13.4,1505.2,325.3,-0.7,1.8,2470.554,13.29,0.015,225.0
2021-10-22T03:46:03,42.805,6.029,-0.013,0.003,-0.008,100.0,101.0,101.0,13.4,1505.2,326.7,-0.7,1.8,2470.552,13.29,0.013,283.0
2021-10-22T03:49:03,42.805,6.029,-0.02,-0.029,-0.058,101.0,99.0,100.0,13.3,1505.2,330.7,-0.8,1.8,2470.537,13.29,0.035,214.6
2021-10-22T03:52:03,42.805,6.029,-0.011,-0.012,-0.012,101.0,101.0,101.0,13.4,1505.2,331.7,-0.7,1.9,2470.556,13.29,0.016,222.5
2021-10-22T03:55:03,42.805,6.029,-0.001,-0.009,-0.024,103.0,101.0,101.0,13.4,1505.2,327.9,-0.7,1.8,2470.574,13.29,0.009,186.3
2021-10-22T03:58:03,42.805,6.029,-0.028,0.01,0.014,102.0,101.0,100.0,13.4,1505.2,331.3,-0.8,1.8,2470.559,13.29,0.029,289.6
2021-10-22T04:04:03,42.805,6.029,0.0,0.007,-0.003,102.0,102.0,101.0,13.3,1505.2,330.4,-0.7,1.8,2470.586,13.28,0.007,0.0
2021-10-22T04:07:03,42.805,6.029,-0.013,0.003,0.004,100.0,101.0,101.0,13.3,1505.2,325.3,-0.8,1.8,2470.624,13.28,0.013,283.0
2021-10-22T04:10:03,42.805,6.029,-0.011,-0.006,-0.013,103.0,103.0,100.0,13.4,1505.2,326.6,-0.8,1.9,2470.605,13.29,0.012,241.4
2021-10-22T04:13:03,42.805,6.029,-0.032,0.008,0.001,102.0,102.0,100.0,13.3,1505.2,329.4,-0.8,1.8,2470.594,13.29,0.032,284.0
2021-10-22T04:16:03,42.805,6.029,-0.007,-0.004,-0.016,100.0,101.0,101.0,13.4,1505.2,331.7,-0.7,1.8,2470.601,13.29,0.008,240.3
2021-10-22T04:19:03,42.805,6.029,-0.01,0.017,0.013,101.0,101.0,102.0,13.4,1505.2,329.3,-0.8,1.9,2470.587,13.29,0.019,329.5
2021-10-22T04:22:03,42.805,6.029,0.006,-0.012,-0.02,100.0,102.0,100.0,13.4,1505.2,332.1,-0.8,1.8,2470.595,13.29,0.013,153.4
2021-10-22T04:25:03,42.805,6.029,-0.019,-0.008,-0.026,101.0,101.0,101.0,13.4,1505.2,329.9,-0.7,1.8,2470.561,13.29,0.02,247.2
2021-10-22T04:28:03,42.805,6.029,-0.007,0.006,-0.009,102.0,102.0,101.0,13.4,1505.2,325.3,-0.7,1.8,2470.61,13.29,0.009,310.6
2021-10-22T04:31:03,42.805,6.029,-0.026,0.008,-0.039,102.0,103.0,100.0,13.4,1505.2,330.4,-0.8,1.8,2470.583,13.29,0.027,287.1
2021-10-22T04:34:03,42.805,6.029,-0.011,-0.002,-0.03,102.0,101.0,100.0,13.4,1505.2,330.3,-0.7,1.8,2470.594,13.29,0.011,259.7
2021-10-22T04:37:03,42.805,6.029,-0.016,0.002,-0.016,101.0,101.0,101.0,13.3,1505.2,330.5,-0.8,1.8,2470.597,13.29,0.016,277.1
2021-10-22T04:40:03,42.805,6.029,-0.021,0.003,-0.03,102.0,101.0,101.0,13.3,1505.2,328.0,-0.8,1.8,2470.613,13.29,0.021,278.1
2021-10-22T04:43:03,42.805,6.029,-0.022,-0.009,-0.051,101.0,102.0,101.0,13.4,1505.2,329.9,-0.7,1.8,2470.6,13.29,0.023,247.8
2021-10-22T04:46:03,42.805,6.029,-0.011,0.0,-0.019,103.0,102.0,100.0,13.4,1505.2,331.2,-0.7,1.8,2470.592,13.29,0.011,270.0
2021-10-22T04:49:03,42.805,6.029,-0.019,-0.012,-0.03,102.0,102.0,102.0,13.3,1505.2,328.9,-0.7,1.8,2470.614,13.29,0.022,237.7
2021-10-22T04:52:03,42.805,6.029,-0.033,0.008,-0.034,103.0,102.0,101.0,13.4,1505.2,325.1,-0.7,1.8,2470.596,13.29,0.033,283.6
2021-10-22T04:55:03,42.805,6.029,-0.014,-0.022,-0.029,103.0,102.0,101.0,13.4,1505.2,325.7,-0.8,1.8,2470.585,13.29,0.026,212.5
2021-10-22T04:58:03,42.805,6.029,-0.016,0.017,0.011,102.0,103.0,101.0,13.4,1505.2,331.6,-0.8,1.8,2470.61,13.29,0.023,316.7
2021-10-22T05:04:03,42.805,6.029,-0.023,-0.001,-0.025,103.0,102.0,102.0,13.3,1505.2,326.9,-0.8,1.8,2470.66,13.28,0.023,267.5
2021-10-22T05:07:03,42.805,6.029,-0.009,-0.007,-0.009,103.0,102.0,100.0,13.4,1505.2,327.7,-0.8,1.8,2470.659,13.28,0.011,232.1
2021-10-22T05:10:03,42.805,6.029,-0.018,0.013,-0.005,102.0,102.0,101.0,13.4,1505.2,331.5,-0.8,1.8,2470.64,13.28,0.022,305.8
2021-10-22T05:13:03,42.805,6.029,-0.027,0.001,-0.016,102.0,101.0,101.0,13.4,1505.2,327.0,-0.8,1.8,2470.654,13.28,0.027,272.1
2021-10-22T05:16:03,42.805,6.029,-0.031,0.007,-0.008,102.0,101.0,101.0,13.4,1505.2,326.1,-0.8,1.8,2470.654,13.29,0.031,282.7
2021-10-22T05:19:03,42.805,6.029,-0.037,0.017,0.002,102.0,101.0,101.0,13.4,1505.2,329.4,-0.8,1.8,2470.629,13.28,0.04,294.7
2021-10-22T05:22:03,42.805,6.029,-0.017,-0.001,-0.015,102.0,100.0,100.0,13.4,1505.2,331.2,-0.8,1.8,2470.603,13.29,0.017,266.6
2021-10-22T05:25:03,42.805,6.029,-0.018,0.001,-0.024,102.0,101.0,100.0,13.4,1505.2,326.7,-0.7,1.8,2470.633,13.29,0.018,273.2
2021-10-22T05:28:03,42.805,6.029,-0.008,0.001,-0.007,102.0,101.0,101.0,13.4,1505.2,329.7,-0.8,1.8,2470.664,13.29,0.008,277.1
2021-10-22T05:31:03,42.805,6.029,-0.015,0.001,-0.007,102.0,99.0,101.0,13.3,1505.2,329.2,-0.8,1.8,2470.616,13.29,0.015,273.8
2021-10-22T05:34:03,42.805,6.029,-0.022,0.007,-0.002,101.0,102.0,101.0,13.4,1505.2,330.7,-0.8,1.8,2470.623,13.29,0.023,287.6
2021-10-22T05:37:03,42.805,6.029,-0.014,0.003,-0.043,102.0,101.0,101.0,13.4,1505.2,331.4,-0.8,1.8,2470.653,13.29,0.014,282.1
2021-10-22T05:40:03,42.805,6.029,-0.056,0.025,-0.004,102.0,100.0,102.0,13.3,1505.2,331.1,-0.7,1.8,2470.626,13.29,0.061,294.1
2021-10-22T05:43:03,42.805,6.029,-0.034,0.009,0.0,101.0,101.0,100.0,13.4,1505.2,327.2,-0.8,1.8,2470.651,13.29,0.035,284.8
2021-10-22T05:46:03,42.805,6.029,-0.04,0.011,0.017,100.0,101.0,101.0,13.4,1505.2,326.8,-0.8,1.8,2470.691,13.29,0.041,285.4
2021-10-22T05:49:03,42.805,6.029,-0.031,0.009,-0.008,102.0,100.0,100.0,13.4,1505.2,326.3,-0.7,1.8,2470.62,13.29,0.032,286.2
2021-10-22T05:52:03,42.805,6.029,0.002,-0.013,-0.012,101.0,100.0,100.0,13.3,1505.2,326.3,-0.8,1.8,2470.622,13.29,0.013,171.3
2021-10-22T05:55:03,42.805,6.029,-0.014,0.015,0.021,101.0,102.0,100.0,13.3,1505.2,329.2,-0.8,1.8,2470.643,13.29,0.02,317.0
2021-10-22T05:58:03,42.805,6.029,-0.018,0.0,-0.009,100.0,107.0,101.0,13.4,1505.2,325.1,-0.7,1.8,2470.657,13.29,0.018,270.0
2021-10-22T06:04:03,42.805,6.029,-0.024,0.015,-0.024,101.0,101.0,100.0,13.4,1505.2,327.8,-0.8,1.8,2470.706,13.28,0.028,302.0
2021-10-22T06:07:03,42.805,6.029,-0.039,0.016,-0.009,100.0,101.0,101.0,13.4,1505.2,331.8,-0.7,1.8,2470.705,13.28,0.042,292.3
2021-10-22T06:10:03,42.805,6.029,-0.014,0.017,0.01,101.0,101.0,100.0,13.4,1505.2,330.1,-0.8,1.8,2470.711,13.28,0.022,320.5
2021-10-22T06:13:03,42.805,6.029,-0.043,0.038,-0.012,101.0,102.0,102.0,13.3,1505.2,325.5,-0.7,1.8,2470.731,13.28,0.057,311.5
2021-10-22T06:16:03,42.805,6.029,-0.006,0.012,0.011,102.0,101.0,100.0,13.4,1505.2,326.7,-0.7,1.8,2470.727,13.28,0.013,333.4
2021-10-22T06:19:03,42.805,6.029,-0.023,0.008,-0.014,101.0,100.0,101.0,13.4,1505.2,330.0,-0.7,1.8,2470.696,13.29,0.024,289.2
2021-10-22T06:22:03,42.805,6.029,-0.024,0.011,-0.01,101.0,101.0,100.0,13.4,1505.2,328.3,-0.8,1.8,2470.667,13.29,0.026,294.6
2021-10-22T06:25:03,42.805,6.029,-0.012,0.001,-0.027,101.0,101.0,101.0,13.4,1505.2,329.1,-0.8,1.8,2470.677,13.28,0.012,274.8
2021-10-22T06:28:03,42.805,6.029,-0.013,0.005,-0.009,101.0,101.0,100.0,13.4,1505.2,327.2,-0.8,1.8,2470.679,13.29,0.013,291.0
2021-10-22T06:31:03,42.805,6.029,-0.017,-0.008,-0.078,102.0,102.0,100.0,13.4,1505.2,328.6,-0.8,1.8,2470.695,13.28,0.018,244.8
2021-10-22T06:34:03,42.805,6.029,-0.03,0.012,-0.01,101.0,101.0,100.0,13.3,1505.2,330.1,-0.8,1.8,2470.699,13.28,0.032,291.8
2021-10-22T06:37:03,42.805,6.029,-0.027,0.005,0.025,102.0,102.0,99.0,13.4,1505.2,325.5,-0.8,1.8,2470.716,13.28,0.027,280.5
2021-10-22T06:40:03,42.805,6.029,-0.021,0.016,-0.019,103.0,100.0,101.0,13.3,1505.2,331.0,-0.8,1.8,2470.715,13.29,0.026,307.3
2021-10-22T06:43:03,42.805,6.029,-0.01,0.004,-0.025,102.0,100.0,100.0,13.3,1505.2,329.4,-0.7,1.8,2470.722,13.29,0.01,291.8
2021-10-22T06:46:03,42.805,6.029,-0.03,0.002,-0.027,100.0,101.0,100.0,13.4,1505.2,325.1,-0.7,1.8,2470.727,13.29,0.03,273.8
2021-10-22T06:49:03,42.805,6.029,-0.028,0.008,-0.025,100.0,101.0,101.0,13.4,1505.2,327.7,-0.7,1.8,2470.7,13.29,0.029,285.9
2021-10-22T06:52:03,42.805,6.029,-0.022,0.0,-0.012,102.0,100.0,99.0,13.4,1505.2,328.3,-0.7,1.8,2470.661,13.29,0.022,270.0
2021-10-22T06:55:03,42.805,6.029,-0.026,0.021,0.011,101.0,102.0,99.0,13.3,1505.2,327.3,-0.7,1.8,2470.724,13.29,0.033,308.9
2021-10-22T06:58:03,42.805,6.029,-0.038,0.005,-0.034,101.0,100.0,99.0,13.4,1505.2,330.9,-0.7,1.8,2470.735,13.29,0.038,277.5
2021-10-22T07:04:02,42.805,6.029,-0.031,-0.004,-0.053,101.0,101.0,100.0,13.4,1505.2,328.9,-0.8,1.8,2470.735,13.28,0.031,262.7
2021-10-22T07:07:02,42.805,6.029,-0.049,0.011,-0.022,101.0,101.0,100.0,13.3,1505.2,328.5,-0.7,1.8,2470.75,13.28,0.05,282.7
2021-10-22T07:10:02,42.805,6.029,-0.024,-0.015,0.001,100.0,102.0,102.0,13.4,1505.2,327.1,-0.8,1.8,2470.76,13.28,0.028,238.0
2021-10-22T07:13:02,42.805,6.029,-0.026,0.013,-0.028,101.0,101.0,100.0,13.3,1505.2,329.7,-0.7,1.8,2470.742,13.28,0.029,296.6
2021-10-22T07:16:02,42.805,6.029,-0.017,-0.005,-0.04,102.0,101.0,99.0,13.3,1505.2,325.4,-0.7,1.8,2470.725,13.29,0.017,253.6
2021-10-22T07:19:02,42.805,6.029,-0.037,0.013,-0.027,102.0,101.0,99.0,13.4,1505.2,328.1,-0.7,1.8,2470.766,13.29,0.039,289.4
2021-10-22T07:22:02,42.805,6.029,-0.045,0.011,-0.014,100.0,101.0,100.0,13.4,1505.2,328.1,-0.8,1.8,2470.733,13.29,0.046,283.7
2021-10-22T07:25:02,42.805,6.029,-0.015,0.015,0.008,101.0,101.0,100.0,13.4,1505.2,328.6,-0.7,1.8,2470.725,13.29,0.021,315.0
2021-10-22T07:28:03,42.805,6.029,-0.004,0.01,-0.016,101.0,101.0,100.0,13.4,1505.2,328.9,-0.8,1.8,2470.746,13.29,0.01,338.2
2021-10-22T07:31:03,42.805,6.029,-0.024,0.008,-0.016,101.0,100.0,99.0,13.4,1505.2,331.1,-0.7,1.8,2470.708,13.29,0.025,288.4
2021-10-22T07:34:03,42.805,6.029,-0.017,0.0,-0.005,101.0,100.0,99.0,13.3,1505.2,329.0,-0.7,1.8,2470.729,13.29,0.017,270.0
2021-10-22T07:37:02,42.805,6.029,-0.021,-0.008,-0.043,100.0,102.0,100.0,13.4,1505.2,327.0,-0.8,1.8,2470.729,13.29,0.022,249.1
2021-10-22T07:40:03,42.805,6.029,-0.036,-0.015,-0.046,98.0,101.0,100.0,13.4,1505.2,326.2,-0.7,1.8,2470.754,13.29,0.039,247.4
2021-10-22T07:43:03,42.805,6.029,-0.05,0.01,-0.041,100.0,101.0,100.0,13.4,1505.2,325.8,-0.7,1.9,2470.743,13.29,0.05,281.3
2021-10-22T07:46:03,42.805,6.029,-0.026,0.0,0.006,99.0,102.0,100.0,13.3,1505.2,329.1,-0.8,1.8,2470.763,13.29,0.026,270.0
2021-10-22T07:49:03,42.805,6.029,-0.044,0.01,-0.013,100.0,100.0,101.0,13.4,1505.2,328.4,-0.8,1.8,2470.765,13.29,0.045,282.8
2021-10-22T07:52:02,42.805,6.029,-0.036,0.015,0.002,100.0,100.0,101.0,13.4,1505.2,326.5,-0.8,1.8,2470.756,13.29,0.039,292.6
2021-10-22T07:55:03,42.805,6.029,-0.032,0.012,0.0,101.0,101.0,99.0,13.4,1505.2,326.0,-0.8,1.9,2470.768,13.29,0.034,290.6
2021-10-22T07:58:03,42.805,6.029,-0.039,0.009,-0.005,101.0,101.0,99.0,13.4,1505.2,327.5,-0.8,1.8,2470.718,13.29,0.04,283.0
2021-10-22T08:04:02,42.805,6.029,-0.024,0.014,-0.015,101.0,100.0,100.0,13.4,1505.2,327.4,-0.8,1.8,2470.756,13.28,0.027,300.3
2021-10-22T08:07:03,42.805,6.029,-0.01,-0.002,-0.028,101.0,101.0,99.0,13.4,1505.2,329.3,-0.7,1.8,2470.805,13.28,0.01,258.7
2021-10-22T08:10:03,42.805,6.029,-0.012,0.0,-0.021,102.0,101.0,99.0,13.4,1505.2,328.9,-0.7,1.8,2470.752,13.28,0.012,270.0
2021-10-22T08:13:03,42.805,6.029,0.0,-0.006,-0.015,101.0,101.0,100.0,13.4,1505.2,327.1,-0.7,1.8,2470.736,13.28,0.006,180.0
2021-10-22T08:16:03,42.805,6.029,-0.005,0.018,-0.021,101.0,101.0,99.0,13.3,1505.2,329.8,-0.7,1.8,2470.764,13.28,0.018,344.5
2021-10-22T08:19:03,42.805,6.029,-0.013,-0.012,-0.013,103.0,98.0,100.0,13.3,1505.2,329.9,-0.8,1.8,2470.732,13.29,0.017,227.3
2021-10-22T08:22:03,42.805,6.029,-0.034,0.007,-0.032,100.0,100.0,100.0,13.4,1505.2,331.2,-0.7,1.8,2470.715,13.29,0.034,281.6
2021-10-22T08:25:03,42.805,6.029,-0.001,0.0,-0.014,101.0,101.0,99.0,13.4,1505.2,329.7,-0.8,1.8,2470.76,13.29,0.001,270.0
2021-10-22T08:28:03,42.805,6.029,-0.022,0.003,-0.009,101.0,99.0,100.0,13.3,1505.2,329.7,-0.8,1.9,2470.759,13.29,0.022,277.8
2021-10-22T08:31:03,42.805,6.029,-0.027,0.007,-0.035,100.0,101.0,100.0,13.4,1505.2,325.9,-0.7,1.8,2470.758,13.29,0.027,284.5
2021-10-22T08:34:03,42.805,6.029,-0.006,0.009,0.006,101.0,100.0,100.0,13.3,1505.2,326.9,-0.8,1.8,2470.744,13.29,0.01,326.3
2021-10-22T08:37:03,42.805,6.029,-0.036,0.006,0.0,101.0,101.0,99.0,13.3,1505.2,326.8,-0.8,1.8,2470.716,13.29,0.036,279.5
2021-10-22T08:40:03,42.805,6.029,-0.04,-0.005,-0.013,101.0,101.0,101.0,13.4,1505.2,325.7,-0.7,1.8,2470.746,13.29,0.04,262.9
2021-10-22T08:43:03,42.805,6.029,-0.027,0.001,-0.051,100.0,101.0,100.0,13.4,1505.2,325.7,-0.8,1.8,2470.738,13.29,0.027,272.1
2021-10-22T08:46:03,42.805,6.029,-0.005,-0.011,-0.03,101.0,100.0,100.0,13.4,1505.2,328.9,-0.8,1.9,2470.723,13.29,0.012,204.4
2021-10-22T08:49:03,42.805,6.029,-0.042,-0.01,-0.027,100.0,101.0,99.0,13.4,1505.2,325.9,-0.8,1.9,2470.77,13.29,0.043,256.6
2021-10-22T08:52:03,42.805,6.029,-0.031,-0.009,-0.028,100.0,101.0,100.0,13.3,1505.2,325.9,-0.7,1.8,2470.756,13.29,0.032,253.8
2021-10-22T08:55:03,42.805,6.029,-0.001,0.002,-0.04,101.0,100.0,99.0,13.4,1505.2,326.6,-0.7,1.8,2470.756,13.29,0.002,333.4
2021-10-22T08:58:03,42.805,6.029,-0.006,0.01,-0.005,102.0,101.0,99.0,13.4,1505.2,330.3,-0.7,1.8,2470.767,13.29,0.011,329.0
2021-10-22T09:04:03,42.805,6.029,-0.017,-0.011,-0.022,101.0,101.0,100.0,13.3,1505.2,325.2,-0.7,1.8,2470.77,13.28,0.02,237.1
2021-10-22T09:07:03,42.805,6.029,-0.016,0.011,0.001,102.0,101.0,101.0,13.4,1505.2,328.0,-0.7,1.9,2470.756,13.28,0.019,304.5
2021-10-22T09:10:03,42.805,6.029,-0.009,0.008,-0.042,101.0,100.0,100.0,13.3,1505.2,329.4,-0.8,1.8,2470.757,13.28,0.012,311.6
2021-10-22T09:13:03,42.805,6.029,-0.006,-0.007,-0.028,100.0,101.0,100.0,13.4,1505.2,326.7,-0.7,1.8,2470.754,13.29,0.009,220.6
2021-10-22T09:16:03,42.805,6.029,-0.011,0.02,-0.003,102.0,98.0,99.0,13.4,1505.2,329.6,-0.8,1.8,2470.703,13.29,0.022,331.2
2021-10-22T09:19:03,42.805,6.029,-0.042,-0.018,-0.049,101.0,101.0,100.0,13.4,1505.2,331.4,-0.7,1.8,2470.766,13.29,0.045,246.8
2021-10-22T09:22:03,42.805,6.029,-0.004,0.003,0.0,100.0,101.0,100.0,13.4,1505.2,325.7,-0.7,1.8,2470.733,13.29,0.005,306.9
2021-10-22T09:25:03,42.805,6.029,-0.015,0.014,-0.014,101.0,101.0,100.0,13.3,1505.2,328.3,-0.8,1.8,2470.718,13.29,0.02,313.0
2021-10-22T09:28:03,42.805,6.029,-0.013,-0.017,-0.007,101.0,101.0,102.0,13.3,1505.2,328.2,-0.8,1.8,2470.702,13.29,0.021,217.4
2021-10-22T09:31:03,42.805,6.029,-0.012,0.006,0.006,101.0,101.0,99.0,13.4,1505.2,328.3,-0.8,1.8,2470.719,13.29,0.013,296.6
2021-10-22T09:34:03,42.805,6.029,-0.02,0.007,0.006,100.0,102.0,100.0,13.4,1505.2,326.7,-0.8,1.8,2470.715,13.29,0.021,289.3
2021-10-22T09:37:03,42.805,6.029,-0.025,0.02,-0.031,101.0,101.0,100.0,13.4,1505.2,326.0,-0.8,1.8,2470.703,13.29,0.032,308.7
2021-10-22T09:40:03,42.805,6.029,-0.018,-0.014,-0.018,100.0,101.0,101.0,13.3,1505.2,327.4,-0.8,1.8,2470.731,13.29,0.022,232.1
2021-10-22T09:43:03,42.805,6.029,-0.016,0.001,0.007,102.0,100.0,100.0,13.3,1505.2,325.7,-0.8,1.9,2470.723,13.29,0.016,273.6
2021-10-22T09:46:03,42.805,6.029,-0.029,-0.01,-0.037,102.0,102.0,101.0,13.3,1505.2,327.0,-0.7,1.8,2470.714,13.29,0.03,251.0
2021-10-22T09:49:03,42.805,6.029,-0.027,0.017,-0.03,103.0,101.0,100.0,13.4,1505.2,331.6,-0.7,1.8,2470.681,13.29,0.031,302.2
2021-10-22T09:52:03,42.805,6.029,-0.02,0.005,-0.038,101.0,102.0,100.0,13.4,1505.2,328.1,-0.8,1.8,2470.727,13.29,0.02,284.0
2021-10-22T09:55:03,42.805,6.029,-0.004,-0.003,0.0,102.0,101.0,100.0,13.4,1505.2,329.4,-0.8,1.8,2470.714,13.29,0.005,233.1